Regional Weather Roundup
Issued by NWS

Home | Current Version | Previous Version | Graphics & Text | Print | Product List | Glossary On
Versions: 1 2 3 4 5 6 7 8 9 10 11 12 13 14 15 16 17 18 19 20 21 22 23 24 25 26 27 28 29 30 31 32 33 34 35 36 37 38 39 40 41 42 43 44 45 46 47 48 49 50
000
ASUS43 KOAX 171210
RWRNE

WEATHER ROUNDUP FOR NEBRASKA
NATIONAL WEATHER SERVICE OMAHA NE
600 AM CST WED DEC 17 2014

NOTES: SATELLITE DATA IS BEING USED TO AUGMENT CLOUD COVER ABOVE
       12000 FEET.
       "FAIR" INDICATES FEW OR NO CLOUDS BELOW 12,000 FEET WITH NO
       SIGNIFICANT WEATHER AND/OR OBSTRUCTIONS TO VISIBILITY.

  * THESE STATIONS DO NOT REPORT WEATHER SUCH AS RAIN...SNOW OR FOG.

NEZ001>004-019>022-054>056-171300-
NEBRASKA PANHANDLE

CITY           SKY/WX    TMP DP  RH WIND       PRES   REMARKS
SCOTTSBLUFF    MOCLDY    15  13  91 VRB3      30.01S
6HR MIN TEMP:  15; 6HR MAX TEMP:  20;

ALLIANCE       CLOUDY    20  18  92 S16       30.00F WCI   6
6HR MIN TEMP:  18; 6HR MAX TEMP:  20;

CHADRON        CLOUDY     8   4  83 W5        30.05F FOG     WCI   0
6HR MIN TEMP:   3; 6HR MAX TEMP:  12;

KIMBALL        CLOUDY    14  12  94 S5        29.96F WCI   6
SIDNEY         CLOUDY    18  16  92 S13       30.02S FOG     WCI   5
6HR MIN TEMP:  12; 6HR MAX TEMP:  22;

$$

NEZ057>060-069>072-079>082-171300-
SOUTHWEST NEBRASKA

CITY           SKY/WX    TMP DP  RH WIND       PRES   REMARKS
NORTH PLATTE   CLOUDY    20  18  92 S7        30.17S WCI  11
6HR MIN TEMP:  20; 6HR MAX TEMP:  21;

IMPERIAL       CLOUDY    21  19  92 SE12      30.12S FOG     WCI   9
6HR MIN TEMP:  21; 6HR MAX TEMP:  22;

LEXINGTON      CLOUDY    21  19  92 SE6       30.21S WCI  14
MCCOOK         CLOUDY    21  19  92 E10       30.18F WCI  10
6HR MIN TEMP:  21; 6HR MAX TEMP:  22;

OGALLALA       CLOUDY    22  21  96 S8        30.12S WCI  13
$$

NEZ005>010-023>029-035>040-094-171300-
NORTH CENTRAL NEBRASKA

CITY           SKY/WX    TMP DP  RH WIND       PRES   REMARKS
VALENTINE      CLOUDY    19  16  88 SE12      30.17F WCI   7
6HR MIN TEMP:  19; 6HR MAX TEMP:  20;

AINSWORTH      CLOUDY    18  17  95 SE6       30.19S WCI  10
BROKEN BOW     CLOUDY    20  18  92 SE8       30.20S WCI  10
6HR MIN TEMP:  20; 6HR MAX TEMP:  22;

O`NEILL        CLOUDY    18  18  97 CALM      30.27R
ORD            CLOUDY    19  16  88 E6        30.24F WCI  11
6HR MIN TEMP:  19; 6HR MAX TEMP:  19;

THEDFORD       CLOUDY    19  19  96 S8        30.17R WCI   9
$$

NEZ041-046>049-061>064-073>077-083>087-171300-
SOUTH CENTRAL NEBRASKA

CITY           SKY/WX    TMP DP  RH WIND       PRES   REMARKS
GRAND ISLAND   CLOUDY    20  17  88 E7        30.27F WCI  11
6HR MIN TEMP:  20; 6HR MAX TEMP:  20;

AURORA         MOCLDY    21  19  91 E6        30.27F WCI  13
HASTINGS       CLOUDY    20  17  88 E6        30.25F WCI  12
6HR MIN TEMP:  20; 6HR MAX TEMP:  21;

HEBRON         CLOUDY    22  18  85 E5        30.30S WCI  15
HOLDREGE       CLOUDY    21  19  92 E6        30.22S FOG     WCI  14
KEARNEY *      CLOUDY    21  18  86 E8        30.24R WCI  12
YORK           CLOUDY    19  19 100 E6        30.29F WCI  11
$$

NEZ011>018-030>034-042>045-171300-
NORTHEAST NEBRASKA

CITY           SKY/WX    TMP DP  RH WIND       PRES   REMARKS
NORFOLK        CLOUDY    20  14  77 NE5       30.30S WCI  13
6HR MIN TEMP:  20; 6HR MAX TEMP:  21;

ALBION         CLOUDY    19  15  86 CALM      30.29R
BLAIR          PTCLDY    18  13  83 N5        30.32F WCI  11
COLUMBUS *     CLOUDY    19  12  73 NE7       30.32S WCI  10
FREMONT        FAIR      20  16  83 N5        30.33F WCI  14
TEKAMAH        MOCLDY    17  11  77 N3        30.37S
6HR MIN TEMP:  16; 6HR MAX TEMP:  18;

WAYNE          MOCLDY    13   9  86 NE3       30.33S
$$

NEZ050>053-065>068-078-088>093-171300-
SOUTHEAST NEBRASKA

CITY           SKY/WX    TMP DP  RH WIND       PRES   REMARKS
LINCOLN        CLOUDY    22  16  78 NE6       30.34F WCI  14
6HR MIN TEMP:  22; 6HR MAX TEMP:  23;

OMAHA EPPLEY   CLOUDY    17  13  84 N3        30.37S
6HR MIN TEMP:  17; 6HR MAX TEMP:  19;

BEATRICE       CLOUDY    22  18  83 NE3       30.32S
FALLS CITY     MOCLDY    21  15  78 N8        30.33F WCI  11
6HR MIN TEMP:  20; 6HR MAX TEMP:  22;

NEBRASKA CITY  PTCLDY    20  13  73 N8        30.34R WCI  10
PLATTSMOUTH    CLOUDY    19  11  74 N5        30.34R WCI  12
$$

NEZ044-045-051>053-067-171300-
OMAHA AREA

CITY           SKY/WX    TMP DP  RH WIND       PRES   REMARKS
OMAHA EPPLEY   CLOUDY    17  13  84 N3        30.37S
6HR MIN TEMP:  17; 6HR MAX TEMP:  19;

BLAIR          PTCLDY    18  13  83 N5        30.32F WCI  11
FREMONT        FAIR      20  16  83 N5        30.33F WCI  14
MILLARD        PTCLDY    19  12  73 CALM      30.35S
OFFUTT AFB     MOCLDY    18  12  77 N5        30.35S WCI  11
PLATTSMOUTH    CLOUDY    19  11  74 N5        30.34R WCI  12
WAHOO          PTSUNNY   21  15  80 N3        30.34S
$$



USA.gov is the U.S. government's official web portal to all federal, state and local government web resources and services.